Location: Unspecified
(0.0000°N, 0.0000°E)
Time: 07:03:42
(UTC+00:00)

A-11 Canister half - Visible Passes

Search period start: 25 October 2014 00:00
Search period end: 04 November 2014 00:00
Orbit: 1518 x 1682 km, 47.2° (Epoch: 24 October)

Date Brightness Start Highest point End Pass type
(mag) Time Alt. Az. Time Alt. Az. Time Alt. Az.
25 Oct 10.6 01:55:29 23° SE 01:55:29 23° SE 01:58:24 10° SE visible
25 Oct 9.9 03:53:42 26° SW 03:53:57 26° SW 04:01:26 10° S visible
26 Oct 11.0 01:34:08 15° SE 01:34:08 15° SE 01:35:26 10° SE visible
26 Oct 10.0 03:32:21 27° SW 03:32:21 27° SW 03:38:49 10° S visible
27 Oct 10.1 03:10:56 27° SSW 03:10:56 27° SSW 03:16:11 10° S visible
28 Oct 10.3 02:49:27 24° S 02:49:27 24° S 02:53:31 10° SSE visible
29 Oct 10.6 02:27:54 21° S 02:27:54 21° S 02:30:50 10° SSE visible
30 Oct 10.8 02:06:17 17° SSE 02:06:17 17° SSE 02:08:08 10° SSE visible
31 Oct 11.1 01:44:38 13° SSE 01:44:38 13° SSE 01:45:25 10° SSE visible
